owner,sensor,date,latitude,longitude,vertical_datum,sea_water_practical_salinity,qcFlag 
TABS,ioos:station:wmo:42050:1,2014-02-01T00:00:00Z,28.8425,-94.2433,2.0,35.058,11111222 
TABS,ioos:station:wmo:42050:1,2014-02-01T00:30:00Z,28.8425,-94.2433,2.0,35.0518,11111222 
TABS,ioos:station:wmo:42050:1,2014-02-01T01:00:00Z,28.8425,-94.2433,2.0,35.0478,11111222 
TABS,ioos:station:wmo:42050:1,2014-02-01T01:30:00Z,28.8425,-94.2433,2.0,35.0378,11111222 
TABS,ioos:station:wmo:42050:1,2014-02-01T02:00:00Z,28.8425,-94.2433,2.0,35.0299,11111222 
TABS,ioos:station:wmo:42050:1,2014-02-01T02:30:00Z,28.8425,-94.2433,2.0,35.0229,11111222 
TABS,ioos:station:wmo:42050:1,2014-02-01T03:00:00Z,28.8425,-94.2433,2.0,35.0149,11111222 
TABS,ioos:station:wmo:42050:1,2014-02-01T03:30:00Z,28.8425,-94.2433,2.0,35.012,11111222 
TABS,ioos:station:wmo:42050:1,2014-02-01T04:00:00Z,28.8425,-94.2433,2.0,35.0088,11111222 
TABS,ioos:station:wmo:42050:1,2014-02-01T04:30:00Z,28.8425,-94.2433,2.0,35.0034,11111222 
TABS,ioos:station:wmo:42050:1,2014-02-01T05:00:00Z,28.8425,-94.2433,2.0,34.9964,11111222 
TABS,ioos:station:wmo:42050:1,2014-02-01T05:30:00Z,28.8425,-94.2433,2.0,34.9932,11111222 
TABS,ioos:station:wmo:42050:1,2014-02-01T06:00:00Z,28.8425,-94.2433,2.0,34.9901,11111222 
TABS,ioos:station:wmo:42050:1,2014-02-01T06:30:00Z,28.8425,-94.2433,2.0,34.9771,11111222 
TABS,ioos:station:wmo:42050:1,2014-02-01T07:00:00Z,28.8425,-94.2433,2.0,34.9697,11111222 
TABS,ioos:station:wmo:42050:1,2014-02-01T07:30:00Z,28.8425,-94.2433,2.0,34.9526,11111222 
TABS,ioos:station:wmo:42050:1,2014-02-01T08:00:00Z,28.8425,-94.2433,2.0,34.94,11111222 
TABS,ioos:station:wmo:42050:1,2014-02-01T08:30:00Z,28.8425,-94.2433,2.0,34.9321,11111222 
TABS,ioos:station:wmo:42050:1,2014-02-01T09:00:00Z,28.8425,-94.2433,2.0,34.9233,11111222 
TABS,ioos:station:wmo:42050:1,2014-02-01T09:30:00Z,28.8425,-94.2433,2.0,34.911,11111222 
TABS,ioos:station:wmo:42050:1,2014-02-01T10:00:00Z,28.8425,-94.2433,2.0,34.908,11111222 
TABS,ioos:station:wmo:42050:1,2014-02-01T10:30:00Z,28.8425,-94.2433,2.0,34.8987,11111222 
TABS,ioos:station:wmo:42050:1,2014-02-01T11:00:00Z,28.8425,-94.2433,2.0,34.8899,11111222 
TABS,ioos:station:wmo:42050:1,2014-02-01T11:30:00Z,28.8425,-94.2433,2.0,34.8824,11111222 
TABS,ioos:station:wmo:42050:1,2014-02-01T12:00:00Z,28.8425,-94.2433,2.0,34.8696,11111222 
TABS,ioos:station:wmo:42050:1,2014-02-01T12:30:00Z,28.8425,-94.2433,2.0,34.8454,11111222 
TABS,ioos:station:wmo:42050:1,2014-02-01T13:00:00Z,28.8425,-94.2433,2.0,34.8413,11111222 
TABS,ioos:station:wmo:42050:1,2014-02-01T13:30:00Z,28.8425,-94.2433,2.0,34.8388,11111222 
TABS,ioos:station:wmo:42050:1,2014-02-01T14:00:00Z,28.8425,-94.2433,2.0,34.8362,11111222 
TABS,ioos:station:wmo:42050:1,2014-02-01T14:30:00Z,28.8425,-94.2433,2.0,34.8326,11111222 
TABS,ioos:station:wmo:42050:1,2014-02-01T15:00:00Z,28.8425,-94.2433,2.0,34.8351,11111222 
TABS,ioos:station:wmo:42050:1,2014-02-01T15:30:00Z,28.8425,-94.2433,2.0,34.8445,11111222 
TABS,ioos:station:wmo:42050:1,2014-02-01T16:00:00Z,28.8425,-94.2433,2.0,34.8534,11111222 
TABS,ioos:station:wmo:42050:1,2014-02-01T21:00:00Z,28.8425,-94.2433,2.0,34.7496,11111222 
TABS,ioos:station:wmo:42050:1,2014-02-01T21:30:00Z,28.8425,-94.2433,2.0,34.7422,11111222 
TABS,ioos:station:wmo:42050:1,2014-02-01T22:00:00Z,28.8425,-94.2433,2.0,34.7766,11111222 
TABS,ioos:station:wmo:42050:1,2014-02-01T22:30:00Z,28.8425,-94.2433,2.0,34.7919,11111222 
TABS,ioos:station:wmo:42050:1,2014-02-01T23:00:00Z,28.8425,-94.2433,2.0,34.8989,11111222 
TABS,ioos:station:wmo:42050:1,2014-02-01T23:30:00Z,28.8425,-94.2433,2.0,34.9118,11111222 
TABS,ioos:station:wmo:42050:1,2014-02-02T00:00:00Z,28.8425,-94.2433,2.0,34.9369,11111222 
TABS,ioos:station:wmo:42050:1,2014-02-02T00:30:00Z,28.8425,-94.2433,2.0,34.9217,11111222 
TABS,ioos:station:wmo:42050:1,2014-02-02T01:00:00Z,28.8425,-94.2433,2.0,34.8475,11111222 
TABS,ioos:station:wmo:42050:1,2014-02-02T01:30:00Z,28.8425,-94.2433,2.0,34.8196,11111222 
TABS,ioos:station:wmo:42050:1,2014-02-02T02:00:00Z,28.8425,-94.2433,2.0,34.7944,11111222 
TABS,ioos:station:wmo:42050:1,2014-02-02T02:30:00Z,28.8425,-94.2433,2.0,34.7877,11111222 
TABS,ioos:station:wmo:42050:1,2014-02-02T03:00:00Z,28.8425,-94.2433,2.0,34.7825,11111222 
TABS,ioos:station:wmo:42050:1,2014-02-02T03:30:00Z,28.8425,-94.2433,2.0,34.766,11111222 
TABS,ioos:station:wmo:42050:1,2014-02-02T04:00:00Z,28.8425,-94.2433,2.0,34.7498,11111222 
TABS,ioos:station:wmo:42050:1,2014-02-02T05:00:00Z,28.8425,-94.2433,2.0,34.728,11111222 
TABS,ioos:station:wmo:42050:1,2014-02-02T05:30:00Z,28.8425,-94.2433,2.0,34.724,11111222 
TABS,ioos:station:wmo:42050:1,2014-02-02T06:00:00Z,28.8425,-94.2433,2.0,34.7221,11111222 
TABS,ioos:station:wmo:42050:1,2014-02-02T06:30:00Z,28.8425,-94.2433,2.0,34.7463,11111222 
TABS,ioos:station:wmo:42050:1,2014-02-02T07:00:00Z,28.8425,-94.2433,2.0,34.7543,11111222 
TABS,ioos:station:wmo:42050:1,2014-02-02T07:30:00Z,28.8425,-94.2433,2.0,34.7326,11111222 
TABS,ioos:station:wmo:42050:1,2014-02-02T08:00:00Z,28.8425,-94.2433,2.0,34.7262,11111222 
TABS,ioos:station:wmo:42050:1,2014-02-02T08:30:00Z,28.8425,-94.2433,2.0,34.7327,11111222 
TABS,ioos:station:wmo:42050:1,2014-02-02T09:00:00Z,28.8425,-94.2433,2.0,34.7223,11111222 
TABS,ioos:station:wmo:42050:1,2014-02-02T09:30:00Z,28.8425,-94.2433,2.0,34.7166,11111222 
TABS,ioos:station:wmo:42050:1,2014-02-02T10:00:00Z,28.8425,-94.2433,2.0,34.7178,11111222 
TABS,ioos:station:wmo:42050:1,2014-02-02T10:30:00Z,28.8425,-94.2433,2.0,34.7258,11111222 
TABS,ioos:station:wmo:42050:1,2014-02-02T11:00:00Z,28.8425,-94.2433,2.0,34.7385,11111222 
TABS,ioos:station:wmo:42050:1,2014-02-02T11:30:00Z,28.8425,-94.2433,2.0,34.7505,11111222 
TABS,ioos:station:wmo:42050:1,2014-02-02T12:00:00Z,28.8425,-94.2433,2.0,34.7278,11111222 
TABS,ioos:station:wmo:42050:1,2014-02-02T12:30:00Z,28.8425,-94.2433,2.0,34.7308,11111222 
TABS,ioos:station:wmo:42050:1,2014-02-02T13:00:00Z,28.8425,-94.2433,2.0,34.7304,11111222 
TABS,ioos:station:wmo:42050:1,2014-02-02T13:30:00Z,28.8425,-94.2433,2.0,34.7214,11111222 
TABS,ioos:station:wmo:42050:1,2014-02-02T14:00:00Z,28.8425,-94.2433,2.0,34.7289,11111222 
TABS,ioos:station:wmo:42050:1,2014-02-02T14:30:00Z,28.8425,-94.2433,2.0,34.7373,11111222 
TABS,ioos:station:wmo:42050:1,2014-02-02T15:00:00Z,28.8425,-94.2433,2.0,34.7127,11111222 
TABS,ioos:station:wmo:42050:1,2014-02-02T15:30:00Z,28.8425,-94.2433,2.0,34.7258,11111222 
TABS,ioos:station:wmo:42050:1,2014-02-02T16:00:00Z,28.8425,-94.2433,2.0,34.7164,11111222 
TABS,ioos:station:wmo:42050:1,2014-02-02T16:30:00Z,28.8425,-94.2433,2.0,34.7234,11111222 
TABS,ioos:station:wmo:42050:1,2014-02-02T17:00:00Z,28.8425,-94.2433,2.0,34.722,11111222 
TABS,ioos:station:wmo:42050:1,2014-02-02T17:30:00Z,28.8425,-94.2433,2.0,34.7482,11111222 
TABS,ioos:station:wmo:42050:1,2014-02-02T18:00:00Z,28.8425,-94.2433,2.0,34.7612,11111222 
TABS,ioos:station:wmo:42050:1,2014-02-02T18:30:00Z,28.8425,-94.2433,2.0,34.7492,11111222 
TABS,ioos:station:wmo:42050:1,2014-02-02T19:00:00Z,28.8425,-94.2433,2.0,34.7399,11111222 
TABS,ioos:station:wmo:42050:1,2014-02-02T19:30:00Z,28.8425,-94.2433,2.0,34.7655,11111222 
TABS,ioos:station:wmo:42050:1,2014-02-02T20:00:00Z,28.8425,-94.2433,2.0,34.7638,11111222 
TABS,ioos:station:wmo:42050:1,2014-02-02T20:30:00Z,28.8425,-94.2433,2.0,34.7489,11111222 
TABS,ioos:station:wmo:42050:1,2014-02-02T21:00:00Z,28.8425,-94.2433,2.0,34.7616,11111222 
TABS,ioos:station:wmo:42050:1,2014-02-02T21:30:00Z,28.8425,-94.2433,2.0,34.7686,11111222 
TABS,ioos:station:wmo:42050:1,2014-02-02T22:00:00Z,28.8425,-94.2433,2.0,34.7444,11111222 
TABS,ioos:station:wmo:42050:1,2014-02-02T22:30:00Z,28.8425,-94.2433,2.0,34.7362,11111222 
TABS,ioos:station:wmo:42050:1,2014-02-02T23:00:00Z,28.8425,-94.2433,2.0,34.7284,11111222 
TABS,ioos:station:wmo:42050:1,2014-02-02T23:30:00Z,28.8425,-94.2433,2.0,34.7494,11111222 
TABS,ioos:station:wmo:42050:1,2014-02-03T00:00:00Z,28.8425,-94.2433,2.0,34.7808,11111222 
TABS,ioos:station:wmo:42050:1,2014-02-03T00:30:00Z,28.8425,-94.2433,2.0,34.7953,11111222 
TABS,ioos:station:wmo:42050:1,2014-02-03T01:00:00Z,28.8425,-94.2433,2.0,34.7742,11111222 
TABS,ioos:station:wmo:42050:1,2014-02-03T01:30:00Z,28.8425,-94.2433,2.0,34.7788,11111222 
TABS,ioos:station:wmo:42050:1,2014-02-03T02:00:00Z,28.8425,-94.2433,2.0,34.7791,11111222 
TABS,ioos:station:wmo:42050:1,2014-02-03T02:30:00Z,28.8425,-94.2433,2.0,34.7761,11111222 
TABS,ioos:station:wmo:42050:1,2014-02-03T03:00:00Z,28.8425,-94.2433,2.0,34.7882,11111222 
TABS,ioos:station:wmo:42050:1,2014-02-03T03:30:00Z,28.8425,-94.2433,2.0,34.7617,11111222 
TABS,ioos:station:wmo:42050:1,2014-02-03T04:00:00Z,28.8425,-94.2433,2.0,34.7822,11111222 
TABS,ioos:station:wmo:42050:1,2014-02-03T04:30:00Z,28.8425,-94.2433,2.0,34.7717,11111222 
TABS,ioos:station:wmo:42050:1,2014-02-03T05:00:00Z,28.8425,-94.2433,2.0,34.7866,11111222 
TABS,ioos:station:wmo:42050:1,2014-02-03T05:30:00Z,28.8425,-94.2433,2.0,34.7981,11111222 
TABS,ioos:station:wmo:42050:1,2014-02-03T06:00:00Z,28.8425,-94.2433,2.0,34.8008,11111222 
TABS,ioos:station:wmo:42050:1,2014-02-03T06:30:00Z,28.8425,-94.2433,2.0,34.7771,11111222 
TABS,ioos:station:wmo:42050:1,2014-02-03T07:00:00Z,28.8425,-94.2433,2.0,34.7802,11111222 
TABS,ioos:station:wmo:42050:1,2014-02-03T07:30:00Z,28.8425,-94.2433,2.0,34.7931,11111222 
TABS,ioos:station:wmo:42050:1,2014-02-03T08:00:00Z,28.8425,-94.2433,2.0,34.8095,11111222 
TABS,ioos:station:wmo:42050:1,2014-02-03T08:30:00Z,28.8425,-94.2433,2.0,34.8866,11111222 
TABS,ioos:station:wmo:42050:1,2014-02-03T09:00:00Z,28.8425,-94.2433,2.0,34.8909,11111222 
TABS,ioos:station:wmo:42050:1,2014-02-03T09:30:00Z,28.8425,-94.2433,2.0,34.9218,11111222 
TABS,ioos:station:wmo:42050:1,2014-02-03T10:00:00Z,28.8425,-94.2433,2.0,34.9737,11111222 
TABS,ioos:station:wmo:42050:1,2014-02-03T10:30:00Z,28.8425,-94.2433,2.0,34.9904,11111222 
TABS,ioos:station:wmo:42050:1,2014-02-03T11:00:00Z,28.8425,-94.2433,2.0,34.9969,11111222 
TABS,ioos:station:wmo:42050:1,2014-02-03T11:30:00Z,28.8425,-94.2433,2.0,35.0281,11111222 
TABS,ioos:station:wmo:42050:1,2014-02-03T12:00:00Z,28.8425,-94.2433,2.0,35.0532,11111222 
TABS,ioos:station:wmo:42050:1,2014-02-03T12:30:00Z,28.8425,-94.2433,2.0,35.0515,11111222 
TABS,ioos:station:wmo:42050:1,2014-02-03T13:00:00Z,28.8425,-94.2433,2.0,35.0601,11111222 
TABS,ioos:station:wmo:42050:1,2014-02-03T13:30:00Z,28.8425,-94.2433,2.0,35.0582,11111222 
TABS,ioos:station:wmo:42050:1,2014-02-03T14:00:00Z,28.8425,-94.2433,2.0,35.0594,11111222 
TABS,ioos:station:wmo:42050:1,2014-02-03T14:30:00Z,28.8425,-94.2433,2.0,35.0585,11111222 
TABS,ioos:station:wmo:42050:1,2014-02-03T15:00:00Z,28.8425,-94.2433,2.0,35.0576,11111222 
TABS,ioos:station:wmo:42050:1,2014-02-03T15:30:00Z,28.8425,-94.2433,2.0,35.061,11111222 
TABS,ioos:station:wmo:42050:1,2014-02-03T16:00:00Z,28.8425,-94.2433,2.0,35.087,11111222 
TABS,ioos:station:wmo:42050:1,2014-02-03T16:30:00Z,28.8425,-94.2433,2.0,35.0908,11111222 
TABS,ioos:station:wmo:42050:1,2014-02-03T17:00:00Z,28.8425,-94.2433,2.0,35.0875,11111222 
TABS,ioos:station:wmo:42050:1,2014-02-03T17:30:00Z,28.8425,-94.2433,2.0,35.0671,11111222 
TABS,ioos:station:wmo:42050:1,2014-02-03T18:00:00Z,28.8425,-94.2433,2.0,35.0557,11111222 
TABS,ioos:station:wmo:42050:1,2014-02-03T18:30:00Z,28.8425,-94.2433,2.0,35.0494,11111222 
TABS,ioos:station:wmo:42050:1,2014-02-03T19:00:00Z,28.8425,-94.2433,2.0,35.0183,11111222 
TABS,ioos:station:wmo:42050:1,2014-02-03T19:30:00Z,28.8425,-94.2433,2.0,35.0109,11111222 
TABS,ioos:station:wmo:42050:1,2014-02-03T20:00:00Z,28.8425,-94.2433,2.0,34.9975,11111222 
TABS,ioos:station:wmo:42050:1,2014-02-03T20:30:00Z,28.8425,-94.2433,2.0,34.9607,11111222 
TABS,ioos:station:wmo:42050:1,2014-02-03T21:00:00Z,28.8425,-94.2433,2.0,34.9349,11111222 
TABS,ioos:station:wmo:42050:1,2014-02-03T21:30:00Z,28.8425,-94.2433,2.0,34.9202,11111222 
TABS,ioos:station:wmo:42050:1,2014-02-03T22:00:00Z,28.8425,-94.2433,2.0,34.8975,11111222 
TABS,ioos:station:wmo:42050:1,2014-02-03T22:30:00Z,28.8425,-94.2433,2.0,34.8869,11111222 
TABS,ioos:station:wmo:42050:1,2014-02-03T23:00:00Z,28.8425,-94.2433,2.0,34.8801,11111222 
TABS,ioos:station:wmo:42050:1,2014-02-03T23:30:00Z,28.8425,-94.2433,2.0,34.8754,11111222 
TABS,ioos:station:wmo:42050:1,2014-02-04T00:00:00Z,28.8425,-94.2433,2.0,34.871,11111222 
TABS,ioos:station:wmo:42050:1,2014-02-04T00:30:00Z,28.8425,-94.2433,2.0,34.8618,11111222 
TABS,ioos:station:wmo:42050:1,2014-02-04T01:00:00Z,28.8425,-94.2433,2.0,34.8444,11111222 
TABS,ioos:station:wmo:42050:1,2014-02-04T01:30:00Z,28.8425,-94.2433,2.0,34.825,11111222 
TABS,ioos:station:wmo:42050:1,2014-02-04T02:00:00Z,28.8425,-94.2433,2.0,34.8118,11111222 
TABS,ioos:station:wmo:42050:1,2014-02-04T02:30:00Z,28.8425,-94.2433,2.0,34.8014,11111222 
TABS,ioos:station:wmo:42050:1,2014-02-04T03:00:00Z,28.8425,-94.2433,2.0,34.7896,11111222 
TABS,ioos:station:wmo:42050:1,2014-02-04T03:30:00Z,28.8425,-94.2433,2.0,34.7774,11111222 
TABS,ioos:station:wmo:42050:1,2014-02-04T04:00:00Z,28.8425,-94.2433,2.0,34.7624,11111222 
TABS,ioos:station:wmo:42050:1,2014-02-04T04:30:00Z,28.8425,-94.2433,2.0,34.7537,11111222 
TABS,ioos:station:wmo:42050:1,2014-02-04T05:00:00Z,28.8425,-94.2433,2.0,34.7394,11111222 
TABS,ioos:station:wmo:42050:1,2014-02-04T05:30:00Z,28.8425,-94.2433,2.0,34.72,11111222 
TABS,ioos:station:wmo:42050:1,2014-02-04T06:00:00Z,28.8425,-94.2433,2.0,34.701,11111222 
TABS,ioos:station:wmo:42050:1,2014-02-04T06:30:00Z,28.8425,-94.2433,2.0,34.702,11111222 
TABS,ioos:station:wmo:42050:1,2014-02-04T07:00:00Z,28.8425,-94.2433,2.0,34.7096,11111222 
TABS,ioos:station:wmo:42050:1,2014-02-04T07:30:00Z,28.8425,-94.2433,2.0,34.7016,11111222 
TABS,ioos:station:wmo:42050:1,2014-02-04T08:00:00Z,28.8425,-94.2433,2.0,34.6551,11111222 
TABS,ioos:station:wmo:42050:1,2014-02-04T08:30:00Z,28.8425,-94.2433,2.0,34.6442,11111222 
TABS,ioos:station:wmo:42050:1,2014-02-04T09:00:00Z,28.8425,-94.2433,2.0,34.6314,11111222 
TABS,ioos:station:wmo:42050:1,2014-02-04T09:30:00Z,28.8425,-94.2433,2.0,34.6189,11111222 
TABS,ioos:station:wmo:42050:1,2014-02-04T10:00:00Z,28.8425,-94.2433,2.0,34.6065,11111222 
TABS,ioos:station:wmo:42050:1,2014-02-04T10:30:00Z,28.8425,-94.2433,2.0,34.621,11111222 
TABS,ioos:station:wmo:42050:1,2014-02-04T11:00:00Z,28.8425,-94.2433,2.0,34.6277,11111222 
TABS,ioos:station:wmo:42050:1,2014-02-04T11:30:00Z,28.8425,-94.2433,2.0,34.6353,11111222 
TABS,ioos:station:wmo:42050:1,2014-02-04T12:00:00Z,28.8425,-94.2433,2.0,34.6412,11111222 
TABS,ioos:station:wmo:42050:1,2014-02-04T12:30:00Z,28.8425,-94.2433,2.0,34.634,11111222 
TABS,ioos:station:wmo:42050:1,2014-02-04T13:00:00Z,28.8425,-94.2433,2.0,34.623,11111222 
TABS,ioos:station:wmo:42050:1,2014-02-04T13:30:00Z,28.8425,-94.2433,2.0,34.6176,11111222 
TABS,ioos:station:wmo:42050:1,2014-02-04T14:00:00Z,28.8425,-94.2433,2.0,34.8397,11111222 
TABS,ioos:station:wmo:42050:1,2014-02-04T14:30:00Z,28.8425,-94.2433,2.0,34.8502,11111222 
TABS,ioos:station:wmo:42050:1,2014-02-04T15:00:00Z,28.8425,-94.2433,2.0,34.8137,11111222 
TABS,ioos:station:wmo:42050:1,2014-02-04T15:30:00Z,28.8425,-94.2433,2.0,34.8415,11111222 
TABS,ioos:station:wmo:42050:1,2014-02-04T16:00:00Z,28.8425,-94.2433,2.0,34.8904,11111222 
TABS,ioos:station:wmo:42050:1,2014-02-04T16:30:00Z,28.8425,-94.2433,2.0,34.9133,11111222 
TABS,ioos:station:wmo:42050:1,2014-02-04T17:00:00Z,28.8425,-94.2433,2.0,34.9431,11111222 
TABS,ioos:station:wmo:42050:1,2014-02-04T17:30:00Z,28.8425,-94.2433,2.0,34.9839,11111222 
TABS,ioos:station:wmo:42050:1,2014-02-04T18:00:00Z,28.8425,-94.2433,2.0,34.9843,11111222 
TABS,ioos:station:wmo:42050:1,2014-02-04T18:30:00Z,28.8425,-94.2433,2.0,35.025,11111222 
TABS,ioos:station:wmo:42050:1,2014-02-04T19:00:00Z,28.8425,-94.2433,2.0,35.1245,11111222 
TABS,ioos:station:wmo:42050:1,2014-02-04T19:30:00Z,28.8425,-94.2433,2.0,35.1128,11111222 
TABS,ioos:station:wmo:42050:1,2014-02-04T20:00:00Z,28.8425,-94.2433,2.0,35.0979,11111222 
TABS,ioos:station:wmo:42050:1,2014-02-04T20:30:00Z,28.8425,-94.2433,2.0,35.0998,11111222 
TABS,ioos:station:wmo:42050:1,2014-02-04T21:00:00Z,28.8425,-94.2433,2.0,35.0818,11111222 
TABS,ioos:station:wmo:42050:1,2014-02-04T21:30:00Z,28.8425,-94.2433,2.0,34.9629,11111222 
TABS,ioos:station:wmo:42050:1,2014-02-04T22:00:00Z,28.8425,-94.2433,2.0,34.8957,11111222 
TABS,ioos:station:wmo:42050:1,2014-02-04T22:30:00Z,28.8425,-94.2433,2.0,34.7514,11111222 
TABS,ioos:station:wmo:42050:1,2014-02-04T23:00:00Z,28.8425,-94.2433,2.0,34.7233,11111222 
TABS,ioos:station:wmo:42050:1,2014-02-04T23:30:00Z,28.8425,-94.2433,2.0,34.7737,11111222 
TABS,ioos:station:wmo:42050:1,2014-02-05T00:00:00Z,28.8425,-94.2433,2.0,34.7298,11111222 
TABS,ioos:station:wmo:42050:1,2014-02-05T00:30:00Z,28.8425,-94.2433,2.0,34.699,11111222 
TABS,ioos:station:wmo:42050:1,2014-02-05T01:00:00Z,28.8425,-94.2433,2.0,34.6795,11111222 
TABS,ioos:station:wmo:42050:1,2014-02-05T01:30:00Z,28.8425,-94.2433,2.0,34.6998,11111222 
TABS,ioos:station:wmo:42050:1,2014-02-05T02:00:00Z,28.8425,-94.2433,2.0,34.7014,11111222 
TABS,ioos:station:wmo:42050:1,2014-02-05T02:30:00Z,28.8425,-94.2433,2.0,34.6738,11111222 
TABS,ioos:station:wmo:42050:1,2014-02-05T03:00:00Z,28.8425,-94.2433,2.0,34.6477,11111222 
TABS,ioos:station:wmo:42050:1,2014-02-05T03:30:00Z,28.8425,-94.2433,2.0,34.6572,11111222 
TABS,ioos:station:wmo:42050:1,2014-02-05T04:00:00Z,28.8425,-94.2433,2.0,34.6353,11111222 
TABS,ioos:station:wmo:42050:1,2014-02-05T04:30:00Z,28.8425,-94.2433,2.0,34.6095,11111222 
TABS,ioos:station:wmo:42050:1,2014-02-05T05:00:00Z,28.8425,-94.2433,2.0,34.5988,11111222 
TABS,ioos:station:wmo:42050:1,2014-02-05T05:30:00Z,28.8425,-94.2433,2.0,34.6549,11111222 
TABS,ioos:station:wmo:42050:1,2014-02-05T06:00:00Z,28.8425,-94.2433,2.0,34.672,11111222 
TABS,ioos:station:wmo:42050:1,2014-02-05T06:30:00Z,28.8425,-94.2433,2.0,34.6636,11111222 
TABS,ioos:station:wmo:42050:1,2014-02-05T07:00:00Z,28.8425,-94.2433,2.0,34.6738,11111222 
TABS,ioos:station:wmo:42050:1,2014-02-05T07:30:00Z,28.8425,-94.2433,2.0,34.6468,11111222 
TABS,ioos:station:wmo:42050:1,2014-02-05T08:00:00Z,28.8425,-94.2433,2.0,34.6202,11111222 
TABS,ioos:station:wmo:42050:1,2014-02-05T08:30:00Z,28.8425,-94.2433,2.0,34.5619,11111222 
TABS,ioos:station:wmo:42050:1,2014-02-05T09:00:00Z,28.8425,-94.2433,2.0,34.5588,11111222 
TABS,ioos:station:wmo:42050:1,2014-02-05T09:30:00Z,28.8425,-94.2433,2.0,34.5061,11111222 
TABS,ioos:station:wmo:42050:1,2014-02-05T10:00:00Z,28.8425,-94.2433,2.0,34.5614,11111222 
TABS,ioos:station:wmo:42050:1,2014-02-05T10:30:00Z,28.8425,-94.2433,2.0,34.599,11111222 
TABS,ioos:station:wmo:42050:1,2014-02-05T11:00:00Z,28.8425,-94.2433,2.0,34.6012,11111222 
TABS,ioos:station:wmo:42050:1,2014-02-05T11:30:00Z,28.8425,-94.2433,2.0,34.5992,11111222 
TABS,ioos:station:wmo:42050:1,2014-02-05T12:00:00Z,28.8425,-94.2433,2.0,34.6344,11111222 
TABS,ioos:station:wmo:42050:1,2014-02-05T12:30:00Z,28.8425,-94.2433,2.0,34.653,11111222 
TABS,ioos:station:wmo:42050:1,2014-02-05T13:00:00Z,28.8425,-94.2433,2.0,34.6803,11111222 
TABS,ioos:station:wmo:42050:1,2014-02-05T13:30:00Z,28.8425,-94.2433,2.0,34.7239,11111222 
TABS,ioos:station:wmo:42050:1,2014-02-05T14:00:00Z,28.8425,-94.2433,2.0,34.7223,11111222 
TABS,ioos:station:wmo:42050:1,2014-02-05T14:30:00Z,28.8425,-94.2433,2.0,34.7467,11111222 
TABS,ioos:station:wmo:42050:1,2014-02-05T15:00:00Z,28.8425,-94.2433,2.0,34.7695,11111222 
TABS,ioos:station:wmo:42050:1,2014-02-05T15:30:00Z,28.8425,-94.2433,2.0,34.7492,11111222 
TABS,ioos:station:wmo:42050:1,2014-02-05T16:00:00Z,28.8425,-94.2433,2.0,34.7425,11111222 
TABS,ioos:station:wmo:42050:1,2014-02-05T16:30:00Z,28.8425,-94.2433,2.0,34.729,11111222 
TABS,ioos:station:wmo:42050:1,2014-02-05T17:00:00Z,28.8425,-94.2433,2.0,34.744,11111222 
TABS,ioos:station:wmo:42050:1,2014-02-05T17:30:00Z,28.8425,-94.2433,2.0,34.7478,11111222 
TABS,ioos:station:wmo:42050:1,2014-02-05T18:00:00Z,28.8425,-94.2433,2.0,34.6864,11111222 
TABS,ioos:station:wmo:42050:1,2014-02-05T18:30:00Z,28.8425,-94.2433,2.0,34.6616,11111222 
TABS,ioos:station:wmo:42050:1,2014-02-05T19:00:00Z,28.8425,-94.2433,2.0,34.6489,11111222 
TABS,ioos:station:wmo:42050:1,2014-02-05T19:30:00Z,28.8425,-94.2433,2.0,34.6512,11111222 
TABS,ioos:station:wmo:42050:1,2014-02-05T20:00:00Z,28.8425,-94.2433,2.0,34.6309,11111222 
TABS,ioos:station:wmo:42050:1,2014-02-05T20:30:00Z,28.8425,-94.2433,2.0,34.543,11111222 
TABS,ioos:station:wmo:42050:1,2014-02-05T21:00:00Z,28.8425,-94.2433,2.0,34.4189,11111222 
TABS,ioos:station:wmo:42050:1,2014-02-05T21:30:00Z,28.8425,-94.2433,2.0,34.4421,11111222 
TABS,ioos:station:wmo:42050:1,2014-02-05T22:00:00Z,28.8425,-94.2433,2.0,34.4661,11111222 
TABS,ioos:station:wmo:42050:1,2014-02-05T22:30:00Z,28.8425,-94.2433,2.0,34.4908,11111222 
TABS,ioos:station:wmo:42050:1,2014-02-05T23:00:00Z,28.8425,-94.2433,2.0,34.5196,11111222 
TABS,ioos:station:wmo:42050:1,2014-02-05T23:30:00Z,28.8425,-94.2433,2.0,34.5239,11111222 
TABS,ioos:station:wmo:42050:1,2014-02-06T00:00:00Z,28.8425,-94.2433,2.0,34.5072,11111222 
TABS,ioos:station:wmo:42050:1,2014-02-06T00:30:00Z,28.8425,-94.2433,2.0,34.5232,11111222 
TABS,ioos:station:wmo:42050:1,2014-02-06T01:00:00Z,28.8425,-94.2433,2.0,34.5203,11111222 
TABS,ioos:station:wmo:42050:1,2014-02-06T01:30:00Z,28.8425,-94.2433,2.0,34.5337,11111222 
TABS,ioos:station:wmo:42050:1,2014-02-06T02:00:00Z,28.8425,-94.2433,2.0,34.5479,11111222 
TABS,ioos:station:wmo:42050:1,2014-02-06T02:30:00Z,28.8425,-94.2433,2.0,34.5543,11111222 
TABS,ioos:station:wmo:42050:1,2014-02-06T03:00:00Z,28.8425,-94.2433,2.0,34.5578,11111222 
TABS,ioos:station:wmo:42050:1,2014-02-06T03:30:00Z,28.8425,-94.2433,2.0,34.5597,11111222 
TABS,ioos:station:wmo:42050:1,2014-02-06T04:00:00Z,28.8425,-94.2433,2.0,34.5344,11111222 
TABS,ioos:station:wmo:42050:1,2014-02-06T04:30:00Z,28.8425,-94.2433,2.0,34.5317,11111222 
TABS,ioos:station:wmo:42050:1,2014-02-06T05:00:00Z,28.8425,-94.2433,2.0,34.5277,11111222 
TABS,ioos:station:wmo:42050:1,2014-02-06T05:30:00Z,28.8425,-94.2433,2.0,34.5266,11111222 
TABS,ioos:station:wmo:42050:1,2014-02-06T06:00:00Z,28.8425,-94.2433,2.0,34.5592,11111222 
TABS,ioos:station:wmo:42050:1,2014-02-06T06:30:00Z,28.8425,-94.2433,2.0,34.569,11111222 
TABS,ioos:station:wmo:42050:1,2014-02-06T07:00:00Z,28.8425,-94.2433,2.0,34.5755,11111222 
TABS,ioos:station:wmo:42050:1,2014-02-06T07:30:00Z,28.8425,-94.2433,2.0,34.5829,11111222 
TABS,ioos:station:wmo:42050:1,2014-02-06T08:00:00Z,28.8425,-94.2433,2.0,34.6118,11111222 
TABS,ioos:station:wmo:42050:1,2014-02-06T08:30:00Z,28.8425,-94.2433,2.0,34.6286,11111222 
TABS,ioos:station:wmo:42050:1,2014-02-06T09:00:00Z,28.8425,-94.2433,2.0,34.6078,11111222 
TABS,ioos:station:wmo:42050:1,2014-02-06T09:30:00Z,28.8425,-94.2433,2.0,34.5935,11111222 
TABS,ioos:station:wmo:42050:1,2014-02-06T10:00:00Z,28.8425,-94.2433,2.0,34.5938,11111222 
TABS,ioos:station:wmo:42050:1,2014-02-06T10:30:00Z,28.8425,-94.2433,2.0,34.6442,11111222 
TABS,ioos:station:wmo:42050:1,2014-02-06T11:00:00Z,28.8425,-94.2433,2.0,34.6921,11111222 
TABS,ioos:station:wmo:42050:1,2014-02-06T11:30:00Z,28.8425,-94.2433,2.0,34.7053,11111222 
TABS,ioos:station:wmo:42050:1,2014-02-06T12:00:00Z,28.8425,-94.2433,2.0,34.7481,11111222 
TABS,ioos:station:wmo:42050:1,2014-02-06T12:30:00Z,28.8425,-94.2433,2.0,34.7685,11111222 
TABS,ioos:station:wmo:42050:1,2014-02-06T13:00:00Z,28.8425,-94.2433,2.0,34.7756,11111222 
TABS,ioos:station:wmo:42050:1,2014-02-06T13:30:00Z,28.8425,-94.2433,2.0,34.7863,11111222 
TABS,ioos:station:wmo:42050:1,2014-02-06T14:00:00Z,28.8425,-94.2433,2.0,34.7955,11111222 
TABS,ioos:station:wmo:42050:1,2014-02-06T14:30:00Z,28.8425,-94.2433,2.0,34.7947,11111222 
TABS,ioos:station:wmo:42050:1,2014-02-06T15:00:00Z,28.8425,-94.2433,2.0,34.7855,11111222 
TABS,ioos:station:wmo:42050:1,2014-02-06T15:30:00Z,28.8425,-94.2433,2.0,34.7824,11111222 
TABS,ioos:station:wmo:42050:1,2014-02-06T16:00:00Z,28.8425,-94.2433,2.0,34.7864,11111222 
TABS,ioos:station:wmo:42050:1,2014-02-06T16:30:00Z,28.8425,-94.2433,2.0,34.7985,11111222 
TABS,ioos:station:wmo:42050:1,2014-02-06T17:00:00Z,28.8425,-94.2433,2.0,34.8056,11111222 
TABS,ioos:station:wmo:42050:1,2014-02-06T17:30:00Z,28.8425,-94.2433,2.0,34.828,11111222 